NOAA 16 DEB, 42397

Orbit data source: Space-Track

NOAA 16 DEB, 42397 is space debris in SSO originally from a launch on Thu, 21 Sep 2000 UTC launched from the Air Force Western Test Range (AFWTR). Debris objects in space refer to the collection of defunct objects orbiting the Earth. Examples of debris include non-operational satellites, rocket bodies, and fragments generated from explosions, collisions, or faulty payload assembly.

Loading next visibility...
Identifier
42397, 2000-055SR
Orbit
SSO
Country
Flag of USUS
Related business
Manufacturer
Unknown
Mission
Spacecraft
Bus & Motor
Unknown
Mass
Unknown
Launch date (UTC)
2000-09-21 (26 years ago)
Launch vehicle
Unknown
Launch site
Air Force Western Test Range (AFWTR)
Object type
Payload
Rocket body
Debris
Shape & HBR
Unknown shape, 0.1 m
Radar Cross Section
Medium (>0.1 m² and <1 m²)

Expand to show TLE details & history
Last TLE update: 14 hours ago

TLE from 14 hours ago
0 NOAA 16 DEB
1 42397U 00055SR  26264.50298037  .00005059  00000-0  13533-2 0  9995
2 42397  98.7316   5.0242 0027256   1.3534 358.7728 14.48518596547683
Epoch: 2026-09-21T12:04Z
TLE epoch observation values (Epoch: 2026-09-21T12:04:17.503Z)
Latitude
0.00003°
Longitude
-176.43061°
Altitude
714.069 km
Speed
7.509 km/s
True Right ascension
00h 20m 05s
True Declination
0° 00' 00"
Sunlit
Object was in full shadow at epoch
Visualization orbit readout
Latitude
Unknown
Longitude
Unknown
Altitude
Unknown
Speed
Unknown
Apparent Right ascension
Unknown
Apparent Declination
Unknown
Sunlit
N/A
Visualization observer readout
Local Sidereal Time
19:14:56
Azimuth
Unknown
Elevation
Unknown
Doppler factor
Unknown
Orbital elements
Apogee altitude
746.98 km
Perigee altitude
708.245 km
Semi-major axis
7,105.75 km
Eccentricity
0.00273
Inclination
98.7316°
RAAN
5.0242°
Arg. of periapsis
1.3534°
True anomaly
358.76609°
Mean anomaly
358.7728°
Eccentric anomaly
358.76945°
Mean motion
3.6235 °/min
Orbital period
99.35 mins
BSTAR
0.0013533
Loading maneuver chart data...
Computing Atmospheric mass density...

Documentation

Showing up to 5 results
|